Theta_e
298 299 299 301 305 302 303 304 305 304 302 302 301 302 303 304 300 299 300 299 297 298 301 303 301 301 301 301 300 301 300 301 301 300 300 299 300 300 300 300 300 301 301 301
296 297 298 299 301 302 303 303 303 301 300 300 299 299 300 300 301 300 302 301 300 300 299 299 300 300 300 300 300 300 301 301 301 300 300 299 300 300 300 300 300 301 300 300
295 296 295 298 297 299 298 303 302 301 299 298 298 300 299 299 299 300 300 300 301 300 300 298 297 299 300 299 299 300 300 301 301 301 300 299 299 299 299 299 300 301 300 300
295 294 297 295 296 297 299 296 298 298 299 297 298 298 300 301 302 299 299 299 299 299 299 298 297 297 299 299 300 300 300 300 300 301 300 299 299 299 299 299 300 300 300 300
297 295 296 297 297 295 296 296 296 299 298 299 298 298 300 300 301 301 301 299 297 297 297 297 297 297 298 299 299 300 300 300 299 300 300 299 299 300 300 299 300 300 300 300
296 295 295 296 296 296 296 299 299 297 296 296 296 296 301 298 299 302 304 303 303 300 297 295 295 296 297 299 299 299 299 299 299 299 299 300 299 299 299 299 300 299 300 300
297 296 295 295 296 297 297 297 298 295 292 299 297 295 301 299 300 299 300 300 300 299 298 295 294 293 295 297 298 298 298 298 298 299 299 299 300 300 299 299 299 299 299 299
298 299 296 294 296 298 297 297 299 297 298 299 298 299 299 298 298 298 299 299 298 299 297 297 294 293 294 296 297 297 297 297 298 298 299 299 300 299 299 299 299 299 299 299
297 298 295 295 295 297 298 299 297 299 293 300 302 301 300 301 301 300 300 299 299 299 298 298 297 293 294 295 296 297 297 298 297 298 299 299 299 299 299 299 299 299 299 298
300 300 295 294 294 294 296 297 299 296 295 298 300 300 301 302 301 303 301 300 299 298 298 296 295 293 294 295 296 297 297 298 298 298 298 299 299 299 299 299 299 298 299 298
300 303 297 295 295 297 297 298 296 297 299 301 299 300 297 300 300 300 301 300 299 298 296 295 295 293 294 295 296 296 297 298 298 298 298 299 299 299 299 299 299 298 298 297
299 305 302 297 294 293 294 296 297 300 298 299 302 302 301 301 299 301 300 298 298 298 296 294 294 293 292 294 295 296 296 297 298 298 299 299 299 299 299 299 299 298 298 297
301 302 301 303 298 292 293 295 297 298 299 300 301 302 299 299 299 299 298 296 296 296 294 293 293 292 292 293 295 295 296 296 297 298 298 298 298 298 298 299 299 298 297 297
304 306 299 307 305 298 295 295 297 300 301 302 301 302 301 298 298 297 296 294 295 295 294 294 294 293 292 293 294 295 296 297 297 297 297 298 298 298 298 298 298 298 297 297
306 310 307 307 304 299 301 296 298 299 300 301 301 299 300 298 298 295 295 295 295 294 294 293 293 293 293 293 294 295 295 296 297 297 297 298 298 298 298 298 298 297 297 297
301 308 306 309 308 306 305 298 298 299 299 300 300 299 298 298 296 295 292 292 292 292 291 290 290 290 290 291 291 291 292 294 295 297 298 297 297 297 297 297 297 297 296 296
298 303 306 309 307 309 309 307 304 301 303 302 303 304 299 297 295 290 290 290 289 288 288 287 287 287 287 289 289 288 289 291 293 295 296 297 297 297 297 296 296 296 296 296
296 297 300 305 296 308 305 304 307 308 308 301 299 294 292 293 290 289 287 287 287 286 286 285 285 284 285 285 285 285 287 289 290 292 294 295 295 295 295 295 295 295 294 295
296 297 300 301 303 304 306 294 292 298 296 290 292 290 289 290 291 290 287 286 285 285 284 284 282 283 283 282 282 284 286 287 288 289 291 292 293 294 294 294 294 294 293 293
296 297 299 302 303 303 293 292 292 292 293 289 290 289 289 291 297 290 287 285 284 283 282 282 280 281 281 280 280 284 284 284 285 285 286 289 291 292 293 293 292 292 292 292
287 292 293 294 297 293 290 291 290 299 291 289 289 288 288 289 288 287 285 284 282 281 280 280 278 279 279 278 278 281 281 280 281 283 284 287 290 292 292 293 292 292 291 291
290 289 290 293 294 292 289 290 291 290 290 288 286 284 284 283 283 282 281 282 281 280 278 277 276 276 276 275 275 277 278 277 277 280 283 285 288 289 291 291 291 290 290 289
288 288 288 291 291 289 288 289 288 287 289 285 283 281 280 280 280 280 280 280 279 278 276 275 274 274 273 272 272 273 274 275 275 277 282 284 286 288 289 290 289 288 288 288
286 286 288 286 286 288 286 282 282 282 281 280 278 278 277 276 277 277 278 278 277 275 274 273 273 273 272 271 270 271 272 272 273 275 278 283 285 286 288 289 289 288 287 288
288 288 284 285 287 285 281 279 278 279 278 276 275 275 275 274 275 275 275 274 273 272 272 270 271 271 270 269 269 269 270 269 271 274 276 280 284 285 287 287 288 288 288 289
281 279 287 287 278 279 279 276 274 275 274 273 272 272 272 272 272 273 272 271 270 270 269 269 269 268 267 267 267 268 268 268 269 272 274 276 279 284 285 287 287 288 288 289
Wind_Speed
3 4 10 15 16 2 2 4 6 3 1 4 8 15 18 20 8 13 16 15 14 19 19 23 30 34 34 37 38 41 42 43 41 38 35 30 30 27 24 21 18 17 15 13
2 13 10 5 6 8 7 5 13 6 3 5 8 21 18 20 16 18 23 21 21 16 12 15 23 29 35 37 40 43 47 46 46 43 40 31 32 29 26 21 19 18 17 14
9 5 6 10 6 6 5 13 5 8 5 4 5 20 10 7 10 16 18 23 16 19 16 14 15 27 31 36 41 41 45 48 49 46 39 26 28 21 25 23 22 22 19 16
9 5 6 6 6 11 15 8 7 5 2 5 1 10 7 7 18 8 13 15 17 15 12 13 16 17 31 36 36 41 44 47 48 49 44 40 32 22 28 31 27 23 20 18
8 9 6 9 8 8 6 4 6 4 4 2 3 3 5 2 9 9 12 10 9 10 10 13 16 18 30 32 37 40 42 44 46 51 48 43 37 36 28 27 26 25 22 20
4 1 5 7 3 3 8 6 6 4 2 3 9 7 27 7 8 5 4 4 4 6 6 7 6 15 19 26 31 34 38 39 43 47 46 45 40 35 27 26 28 28 25 23
2 5 3 3 6 2 2 7 1 3 2 8 2 5 17 11 12 8 10 10 7 5 4 5 7 7 10 21 27 31 35 35 42 44 46 46 45 43 37 32 32 31 28 26
9 6 12 8 8 9 8 8 6 9 5 4 3 9 7 9 11 10 7 7 8 6 2 3 5 6 8 17 23 27 31 29 37 44 46 47 47 42 39 34 31 31 31 27
7 6 1 3 2 5 7 9 5 6 2 3 5 8 9 14 14 9 8 6 7 3 1 2 2 5 9 18 24 30 30 29 34 37 41 42 43 40 40 36 31 30 28 25
6 1 2 1 1 1 4 3 3 2 3 4 6 6 7 11 11 4 7 6 5 4 1 1 2 4 9 17 23 26 28 30 36 38 39 42 44 42 40 36 33 31 28 26
4 4 1 2 7 9 4 4 0 3 5 6 2 6 7 10 6 5 7 5 3 4 3 1 0 2 5 9 17 24 25 28 30 36 39 40 40 40 39 37 36 33 31 29
8 4 6 9 1 1 1 4 7 5 6 3 3 8 1 4 6 4 7 8 6 5 2 1 2 1 3 7 11 18 24 29 32 35 38 38 37 37 39 40 37 35 33 30
7 4 3 2 2 2 5 6 4 1 2 7 6 9 2 3 7 7 8 10 9 9 11 9 9 7 5 3 6 11 17 23 26 28 31 33 35 36 38 39 38 37 34 32
8 6 8 15 8 6 7 8 15 6 2 7 7 9 6 9 8 8 9 11 13 14 14 12 11 9 7 7 6 8 11 16 20 24 28 32 36 37 38 37 38 37 35 34
5 7 10 17 13 4 7 7 16 17 23 9 23 10 2 3 7 8 10 13 15 16 18 17 16 14 14 19 20 17 11 12 17 22 27 33 33 33 33 35 37 37 37 36
6 8 8 7 14 13 14 4 14 22 22 18 22 21 3 6 7 12 12 12 12 11 13 15 16 18 16 19 22 26 24 22 16 21 27 28 28 29 32 34 37 37 37 36
6 4 5 14 7 13 15 21 17 8 7 13 15 18 5 7 11 12 12 12 12 12 12 12 13 14 17 22 24 22 26 27 20 22 29 31 32 33 34 34 34 37 39 37
8 11 4 4 1 20 2 6 18 24 20 7 9 11 8 5 11 10 11 12 13 13 14 13 11 15 22 25 26 25 24 24 22 21 25 29 33 34 33 34 36 38 40 41
14 6 4 4 5 7 0 7 6 1 3 10 5 9 7 3 8 11 11 11 10 11 11 12 17 17 20 24 29 27 26 25 23 21 22 26 28 31 33 34 38 38 37 39
5 11 10 6 5 7 5 14 9 7 3 5 6 7 10 4 6 3 9 9 9 10 14 15 19 17 19 25 26 20 24 25 26 28 28 26 25 29 32 35 32 33 36 37
5 3 3 8 5 5 12 11 7 2 4 2 4 6 8 6 4 6 9 8 8 10 14 16 18 18 20 24 26 22 22 24 30 31 32 29 24 27 32 33 32 34 32 31
3 4 2 2 3 4 11 4 6 3 0 4 6 7 5 5 7 8 9 10 11 11 15 17 18 18 18 20 21 18 19 29 31 31 30 30 25 23 25 29 28 30 30 28
4 4 2 2 2 2 4 4 4 2 2 3 4 6 6 6 6 9 9 9 8 10 17 17 18 17 16 19 22 22 25 29 31 30 28 28 27 18 20 22 23 22 26 23
4 3 3 1 3 5 3 6 5 6 6 5 6 6 6 7 8 9 9 10 10 13 14 18 19 18 21 24 22 20 25 31 30 28 28 27 26 18 14 18 21 19 19 18
7 4 2 3 2 5 6 5 5 5 7 7 8 7 8 9 11 9 10 9 9 14 16 18 18 19 22 26 26 23 24 29 28 26 25 24 22 22 15 14 18 19 23 26
4 2 5 7 2 2 4 4 7 7 7 8 9 10 9 9 10 10 9 12 14 15 18 18 17 19 21 25 28 24 25 24 26 26 21 21 22 20 19 14 17 17 17 22
Wind_Direction
209 176 201 200 210 68 137 217 247 249 150 238 239 260 262 271 242 258 258 251 241 237 234 221 210 209 206 209 205 208 205 207 202 198 195 197 201 201 206 206 204 208 209 212
109 237 220 161 192 229 251 276 264 280 226 193 282 273 264 263 253 235 247 251 245 243 225 210 199 197 199 199 201 202 207 205 204 202 199 198 199 203 207 206 205 208 212 214
190 209 153 173 185 177 222 229 233 233 328 233 327 284 243 269 248 251 252 253 253 239 233 207 195 197 194 197 197 197 200 204 204 203 198 194 197 201 204 205 206 208 210 215
236 213 170 162 201 177 249 202 196 227 126 253 36 287 240 265 268 219 244 243 246 235 228 208 202 198 199 199 197 196 197 200 199 202 197 195 189 191 204 205 206 206 210 212
237 169 175 202 209 158 229 127 169 156 178 349 198 243 259 84 274 249 244 252 244 237 223 216 202 202 199 195 193 192 193 196 197 200 198 196 199 205 204 205 205 206 209 212
248 357 182 193 83 148 144 88 57 42 99 279 181 166 280 211 241 286 267 321 309 318 260 238 216 196 194 193 190 187 185 190 194 197 197 198 202 201 197 198 199 201 205 209
131 214 181 150 97 57 153 116 297 332 1 236 209 174 249 305 270 223 258 284 271 322 281 259 214 189 176 184 184 184 184 185 191 193 197 201 208 208 204 197 198 197 199 208
186 267 168 176 194 169 195 173 168 200 202 251 135 235 248 231 277 251 259 265 306 318 294 255 235 207 177 176 180 183 184 185 189 194 198 204 210 207 208 207 204 203 207 213
163 262 49 16 137 145 186 216 153 104 56 38 227 280 282 261 277 293 254 255 280 331 352 335 165 190 176 179 184 184 186 189 191 193 198 203 208 210 211 211 211 211 214 214
201 322 19 6 269 11 183 180 105 354 164 237 261 268 234 295 268 348 346 273 286 306 263 137 138 186 195 194 192 191 191 190 194 196 200 205 210 213 215 213 212 213 214 213
152 155 66 78 214 180 157 199 151 135 171 185 252 258 221 241 294 304 334 331 279 276 344 1 275 157 186 195 195 196 194 192 196 202 204 207 211 213 215 215 215 215 214 212
217 182 178 194 161 338 235 241 181 149 223 243 145 259 264 245 349 140 44 29 13 21 11 11 38 67 158 181 194 199 199 200 205 206 208 209 213 213 214 215 215 215 214 213
186 231 137 334 347 22 210 192 217 121 91 205 159 259 349 46 48 37 61 12 10 21 19 14 23 357 354 302 214 208 210 210 211 209 209 211 213 213 216 217 216 215 213 213
172 205 206 219 217 131 184 195 202 178 159 222 223 239 9 48 40 17 19 10 19 24 21 20 15 360 20 1 323 277 235 223 218 213 212 213 214 217 219 219 218 217 215 214
225 247 219 235 244 171 195 170 193 205 224 212 249 251 240 17 43 27 38 25 27 18 9 3 2 6 7 7 359 347 302 260 233 221 218 222 223 222 222 222 220 218 216 216
305 246 214 229 242 240 237 189 194 201 218 236 257 266 231 268 74 35 26 20 27 20 10 1 357 357 1 359 353 347 344 332 278 239 237 237 234 228 224 222 219 218 216 215
287 311 236 246 227 243 235 221 205 207 207 202 226 258 7 50 60 41 30 29 16 9 9 6 358 349 348 352 351 346 333 332 309 266 253 245 237 228 225 222 219 219 216 213
257 292 305 311 339 244 246 210 222 228 234 259 285 31 64 79 95 64 43 29 20 9 3 360 357 348 350 351 349 341 343 343 334 292 272 262 248 237 228 219 219 219 215 212
224 237 262 260 277 328 118 18 6 239 88 24 33 35 10 269 144 59 35 29 18 1 357 355 351 349 352 355 348 347 354 359 360 344 313 286 262 242 230 219 218 215 209 208
300 234 247 226 229 222 47 331 325 301 95 10 50 48 8 20 147 60 12 8 7 359 355 353 352 352 357 357 354 356 358 357 353 342 327 314 289 251 232 229 217 210 208 209
319 331 318 332 311 56 325 330 319 277 54 341 24 43 35 42 22 342 354 6 13 356 349 353 356 357 355 353 356 358 356 355 339 333 330 328 306 266 248 237 224 213 204 205
284 304 295 301 261 232 333 21 44 153 122 13 33 39 26 6 340 349 351 353 355 355 353 356 350 350 352 352 354 351 353 342 338 336 333 333 325 283 249 231 214 211 199 196
277 200 231 209 294 204 309 137 90 37 83 49 19 9 0 347 343 338 339 353 353 353 349 353 344 338 346 354 357 346 342 342 338 336 334 336 335 306 255 223 206 196 193 189
287 212 209 83 251 196 117 68 60 54 69 48 32 351 356 340 331 334 337 344 345 348 346 347 343 344 339 345 347 345 340 339 336 334 334 336 344 322 266 233 219 197 192 191
270 286 273 257 91 105 94 67 29 28 30 15 1 358 351 342 333 336 332 332 336 332 337 342 343 338 332 332 330 341 345 342 332 328 330 333 337 338 298 254 234 215 214 204
29 278 258 270 31 323 55 58 22 26 8 353 344 337 342 338 322 325 318 321 322 328 329 327 329 329 325 325 319 329 347 343 330 322 326 327 326 328 324 288 263 244 240 229